[[{"header":{"parameterUnit":"m.s-1","parameterCategory":2,"la1":30.2992,"la2":30.254,"lo1":-89.0895,"lo2":-89.0443,"dy":0.0025,"dx":0.0025,"nx":19,"ny":19,"refTime":"2026-04-11T03:00:00:Z","depth":"0","parameterNumber":2,"parameterNumberName":"U-component_of_CURRENTS"},"data":[0,0,0,0.2379,0.2379,0.2394,0.2394,0.2363,0.2362,0,0,0,0,0,0,0,0,0,0,0,0.2367,0.2367,0.2379,0.2379,0.2394,0.2394,0.2363,0.2362,0,0,0,0,0,0,0,0,0,0,0,0.2367,0.2367,0.2367,0.2379,0.2394,0.2394,0.2363,0.2363,0,0,0,0,0,0,0,0,0,0,0.2355,0.2326,0.2367,0.2367,0.2379,0.2394,0.2394,0.2364,0.2363,0.2342,0,0.2343,0,0.2355,0.2359,0.2359,0,0,0,0.2376,0.2327,0.2358,0.2367,0.2379,0.2394,0.2387,0.2364,0.2363,0.2341,0.2343,0.2342,0.2354,0.2359,0.2359,0.2263,0.2262,0,0,0.2375,0.2342,0.2359,0.2358,0.238,0.2386,0.2387,0.2364,0.2344,0.2343,0.2342,0.2354,0.2359,0.2359,0.2264,0.2263,0,0,0,0.2375,0.2341,0.2374,0.2359,0.2367,0.2387,0.2388,0.2345,0.2363,0.2342,0.2353,0.2359,0.2358,0.2264,0.2263,0.2243,0,0,0,0.2374,0.2342,0.2373,0.235,0.2368,0.2356,0.2368,0.2365,0.2363,0.2353,0.2359,0.2358,0.2265,0.2264,0.2246,0.2209,0,0,0,0.2367,0.234,0.2348,0.2349,0.2361,0.2358,0.2374,0.2365,0.237,0.2359,0.2358,0.2266,0.2264,0.2248,0.2213,0.2169,0,0,0,0.2326,0.2301,0.2347,0.2319,0.2361,0.235,0.2374,0.2353,0.2339,0.2358,0.2265,0.2263,0.2248,0.2215,0.2172,0.2129,0.2113,0,0,0.2273,0.2293,0.2281,0.2323,0.2303,0.2348,0.2305,0.2303,0.2305,0.2271,0.2269,0.2245,0.2213,0.217,0.203,0.2017,0,0,0,0.2251,0.2239,0.2241,0.2241,0.2261,0.226,0.2269,0.227,0.2246,0.2291,0.2216,0.2195,0.2169,0.2148,0.2137,0.2063,0.2256,0.2256,0.2256,0.2109,0.2155,0.2126,0.2172,0.2167,0.2187,0.218,0.2176,0.2197,0.2178,0.2159,0.2079,0.2056,0.2047,0.1972,0.215,0.215,0.215,0.215,0.2028,0.2022,0.2057,0.2052,0.208,0.2057,0.2079,0.2101,0.2069,0.2105,0.2082,0.2102,0.2034,0.1958,0.2148,0.2148,0.2148,0.2148,0.2149,0.1947,0.1955,0.1963,0.1971,0.1955,0.1986,0.1961,0.1993,0.2014,0.1998,0.1965,0.1965,0.1915,0.1989,0.1988,0.1988,0.1988,0.1987,0.1987,0.1872,0.1886,0.1882,0.1892,0.1886,0.1879,0.1892,0.1881,0.188,0.1904,0.1904,0.1858,0.203,0.2055,0.1981,0.1982,0.1983,0.1984,0.1984,0.1794,0.1826,0.1818,0.1815,0.1804,0.1776,0.1791,0.1759,0.1746,0.173,0.1708,0.1857,0.1852,0.186,0.188,0.1765,0.1765,0.1765,0.1765,0.1748,0.1763,0.1765,0.1756,0.1735,0.1728,0.1639,0.1611,0.1594,0.1567,0.1576,0.1604,0.1617,0.16,0.1614,0.163,0.1454,0.1453,0.1453,0.1702,0.1725,0.1704,0.1724,0.1707,0.1669,0.1564,0.1466,0.1444,0.1434,0.1475,0.1488,0.153,0.1555,0.1534,0.156,0.159,0,0]},{"header":{"parameterUnit":"m.s-1","parameterCategory":2,"la1":30.2992,"la2":30.254,"lo1":-89.0895,"lo2":-89.0443,"dy":0.0025,"dx":0.0025,"nx":19,"ny":19,"refTime":"2026-04-11T03:00:00:Z","depth":"0","parameterNumber":3,"parameterNumberName":"V-component_of_CURRENTS"},"data":[0,0,0,-0.1807,-0.1804,-0.1612,-0.1611,-0.1342,-0.134,0,0,0,0,0,0,0,0,0,0,0,-0.1886,-0.1886,-0.1807,-0.1803,-0.1612,-0.1611,-0.1343,-0.134,0,0,0,0,0,0,0,0,0,0,0,-0.1887,-0.1886,-0.1886,-0.1803,-0.1612,-0.161,-0.1343,-0.1486,0,0,0,0,0,0,0,0,0,0,-0.1672,-0.1763,-0.1886,-0.1886,-0.1802,-0.1612,-0.161,-0.1493,-0.1477,-0.1432,0,-0.1432,0,-0.1386,-0.1324,-0.1324,0,0,0,-0.1773,-0.1776,-0.1726,-0.1886,-0.1801,-0.1613,-0.169,-0.1484,-0.1466,-0.1411,-0.1428,-0.1417,-0.1382,-0.1323,-0.1322,-0.1238,-0.1239,0,0,-0.1783,-0.1838,-0.1738,-0.1716,-0.1788,-0.1696,-0.1684,-0.1473,-0.147,-0.1427,-0.141,-0.1377,-0.1321,-0.132,-0.1238,-0.1239,0,0,0,-0.1834,-0.1846,-0.18,-0.1727,-0.1698,-0.1691,-0.1677,-0.1479,-0.1465,-0.1407,-0.1374,-0.132,-0.1317,-0.1237,-0.1238,-0.132,0,0,0,-0.1839,-0.1877,-0.1806,-0.1834,-0.1703,-0.1589,-0.1688,-0.148,-0.1454,-0.1376,-0.132,-0.1315,-0.1236,-0.1237,-0.1316,-0.1322,0,0,0,-0.1889,-0.1881,-0.1872,-0.1838,-0.1767,-0.1592,-0.1564,-0.1473,-0.1435,-0.1323,-0.1314,-0.1235,-0.1237,-0.1312,-0.1317,-0.1304,0,0,0,-0.1931,-0.1923,-0.1874,-0.1849,-0.1769,-0.1672,-0.1565,-0.1472,-0.1387,-0.1319,-0.1236,-0.1238,-0.1311,-0.1314,-0.1302,-0.122,-0.1225,0,0,-0.1939,-0.1926,-0.1907,-0.1858,-0.1779,-0.1694,-0.1625,-0.1473,-0.1405,-0.1295,-0.1292,-0.1317,-0.1317,-0.1304,-0.1336,-0.1337,0,0,0,-0.192,-0.1908,-0.1876,-0.1821,-0.1744,-0.1675,-0.1549,-0.1508,-0.1422,-0.1369,-0.1335,-0.1332,-0.1321,-0.1268,-0.1269,-0.0954,-0.1247,-0.1247,-0.1247,-0.1991,-0.1928,-0.1885,-0.1806,-0.1758,-0.1655,-0.1605,-0.1534,-0.1465,-0.1472,-0.1414,-0.1478,-0.1427,-0.1425,-0.1104,-0.1446,-0.1446,-0.1446,-0.1447,-0.1991,-0.1958,-0.1894,-0.1831,-0.1771,-0.1721,-0.1635,-0.16,-0.1538,-0.1508,-0.1494,-0.1376,-0.1431,-0.1087,-0.1452,-0.1451,-0.1451,-0.145,-0.145,-0.2035,-0.2004,-0.1966,-0.1881,-0.1828,-0.1753,-0.1697,-0.1649,-0.1594,-0.1587,-0.148,-0.1477,-0.1154,-0.1576,-0.1576,-0.1576,-0.1576,-0.1576,-0.1576,-0.2089,-0.2039,-0.2,-0.1922,-0.1876,-0.1817,-0.1729,-0.1682,-0.1595,-0.1539,-0.1538,-0.1134,-0.1515,-0.1487,-0.1576,-0.1576,-0.1576,-0.1576,-0.1576,-0.2091,-0.2092,-0.2024,-0.198,-0.1864,-0.1771,-0.1728,-0.1598,-0.1561,-0.1503,-0.1074,-0.1496,-0.1441,-0.1438,-0.1407,-0.147,-0.147,-0.147,-0.147,-0.2109,-0.2101,-0.2007,-0.1928,-0.1844,-0.1736,-0.1549,-0.1399,-0.1116,-0.0897,-0.0853,-0.0776,-0.0795,-0.0696,-0.071,-0.0662,-0.0535,-0.0533,-0.0531,-0.2087,-0.2067,-0.1996,-0.1915,-0.181,-0.1668,-0.1401,-0.1062,-0.065,-0.0462,-0.0426,-0.0466,-0.0325,-0.0379,-0.0206,-0.0251,-0.0167,0,0]}],[{"header":{"parameterUnit":"m.s-1","parameterCategory":2,"la1":30.2992,"la2":30.254,"lo1":-89.0895,"lo2":-89.0443,"dy":0.0025,"dx":0.0025,"nx":19,"ny":19,"refTime":"2026-04-11T03:00:00:Z","depth":"2","parameterNumber":2,"parameterNumberName":"U-component_of_CURRENTS"},"data":[0,0,0,0.0911,0.0911,0.0916,0.0916,0.0994,0.0995,0,0,0,0,0,0,0,0,0,0,0,0.0929,0.0929,0.0911,0.0911,0.0916,0.0916,0.0994,0.0995,0,0,0,0,0,0,0,0,0,0,0,0.0929,0.0929,0.093,0.0911,0.0916,0.0916,0.0994,0.0974,0,0,0,0,0,0,0,0,0,0,0.0962,0.099,0.0929,0.093,0.0911,0.0916,0.0916,0.0973,0.0976,0.1011,0,0.102,0,0.1,0.1001,0.1002,0,0,0,0.0919,0.0988,0.0959,0.093,0.0911,0.0916,0.0916,0.0974,0.0977,0.1015,0.1021,0.1023,0.1001,0.1002,0.1002,0.1071,0.1071,0,0,0.0919,0.0958,0.0957,0.0962,0.0926,0.0916,0.0916,0.0975,0.1004,0.1021,0.1024,0.1003,0.1003,0.1003,0.1071,0.1071,0,0,0,0.0913,0.0959,0.0928,0.096,0.0949,0.0916,0.0916,0.1002,0.0984,0.1024,0.1004,0.1003,0.1004,0.1071,0.1071,0.1078,0,0,0,0.0913,0.0953,0.0928,0.0956,0.0948,0.0972,0.0942,0.098,0.0985,0.1003,0.1003,0.1005,0.1071,0.1071,0.1078,0.1094,0,0,0,0.0926,0.0956,0.0952,0.0957,0.0949,0.0969,0.0956,0.098,0.0973,0.1002,0.1005,0.1071,0.1071,0.1078,0.1093,0.1143,0,0,0,0.097,0.0965,0.0955,0.0944,0.0949,0.0922,0.0955,0.0968,0.0992,0.1004,0.1071,0.1071,0.1078,0.1093,0.1142,0.1086,0.1088,0,0,0.0971,0.0967,0.095,0.0938,0.0903,0.0921,0.0922,0.0976,0.1006,0.1058,0.1059,0.1078,0.1093,0.1143,0.1093,0.1095,0,0,0,0.0952,0.095,0.0935,0.0921,0.0896,0.0923,0.0949,0.0968,0.1028,0.1018,0.1079,0.1088,0.112,0.1083,0.1084,0.1071,0.1071,0.1071,0.1071,0.0999,0.0958,0.0945,0.0912,0.0918,0.0931,0.0956,0.0998,0.1019,0.1048,0.1094,0.1137,0.1096,0.1097,0.1087,0.1087,0.1087,0.1087,0.1087,0.0982,0.0965,0.0962,0.095,0.0967,0.0996,0.1011,0.1031,0.1091,0.1089,0.1119,0.1091,0.1098,0.1088,0.1087,0.1087,0.1087,0.1087,0.1087,0.0995,0.0987,0.0998,0.1004,0.1051,0.1068,0.1103,0.1114,0.1131,0.1153,0.1157,0.1155,0.1164,0.1193,0.1194,0.1194,0.1194,0.1194,0.1195,0.1009,0.1009,0.1035,0.1065,0.1102,0.1148,0.118,0.1191,0.1195,0.1175,0.1175,0.1174,0.1171,0.1171,0.1199,0.1198,0.1198,0.1197,0.1197,0.1005,0.1031,0.1046,0.1086,0.1152,0.1143,0.1207,0.1213,0.1248,0.1234,0.1184,0.1183,0.1186,0.1183,0.1184,0.1214,0.1214,0.1214,0.1214,0.1016,0.1021,0.1052,0.1093,0.1133,0.1134,0.1092,0.0994,0.1,0.0903,0.0915,0.0837,0.0845,0.0824,0.083,0.0822,0.0757,0.0756,0.0755,0.1012,0.1015,0.1042,0.1081,0.112,0.1084,0.0952,0.0585,0.0384,0.0727,0.0739,0.1202,0.1121,0.112,0.1115,0.1113,0.1111,0,0]},{"header":{"parameterUnit":"m.s-1","parameterCategory":2,"la1":30.2992,"la2":30.254,"lo1":-89.0895,"lo2":-89.0443,"dy":0.0025,"dx":0.0025,"nx":19,"ny":19,"refTime":"2026-04-11T03:00:00:Z","depth":"2","parameterNumber":3,"parameterNumberName":"V-component_of_CURRENTS"},"data":[0,0,0,0.0599,0.0601,0.0671,0.0671,0.0743,0.0744,0,0,0,0,0,0,0,0,0,0,0,0.0553,0.0553,0.0599,0.0601,0.0671,0.0671,0.0743,0.0744,0,0,0,0,0,0,0,0,0,0,0,0.0553,0.0553,0.0554,0.0601,0.0671,0.0671,0.0743,0.0691,0,0,0,0,0,0,0,0,0,0,0.0624,0.0565,0.0553,0.0554,0.0602,0.0671,0.0671,0.0689,0.0694,0.0711,0,0.0717,0,0.0748,0.075,0.075,0,0,0,0.0588,0.056,0.061,0.0554,0.0603,0.0671,0.0636,0.0692,0.0698,0.0718,0.0718,0.0722,0.0749,0.075,0.0751,0.089,0.089,0,0,0.0584,0.0538,0.0605,0.0614,0.0615,0.0634,0.0638,0.0696,0.0681,0.0718,0.0724,0.0751,0.0751,0.0752,0.0889,0.089,0,0,0,0.0582,0.0535,0.0583,0.061,0.0633,0.0636,0.0641,0.0678,0.0702,0.0725,0.0751,0.0751,0.0752,0.0888,0.0889,0.0888,0,0,0,0.0579,0.0536,0.0581,0.0551,0.0632,0.0654,0.0621,0.0697,0.0706,0.0751,0.0751,0.0753,0.0887,0.0889,0.0885,0.0876,0,0,0,0.0551,0.0533,0.0546,0.0549,0.0592,0.0654,0.068,0.07,0.0723,0.075,0.0753,0.0886,0.0888,0.0884,0.0874,0.0868,0,0,0,0.0497,0.053,0.0544,0.0591,0.0591,0.0686,0.068,0.0721,0.0743,0.0752,0.0887,0.0889,0.0883,0.0873,0.0867,0.0932,0.0942,0,0,0.0523,0.053,0.0568,0.0585,0.0683,0.0676,0.077,0.0781,0.0786,0.0862,0.0865,0.0886,0.0874,0.0868,0.1054,0.1059,0,0,0,0.0569,0.0599,0.0628,0.0683,0.074,0.0788,0.0813,0.0837,0.0879,0.0815,0.093,0.0923,0.0918,0.0957,0.0963,0.0899,0.0899,0.0899,0.0898,0.0554,0.0619,0.0689,0.077,0.0814,0.0874,0.0913,0.0955,0.0938,0.096,0.0954,0.0993,0.1039,0.1043,0.0997,0.0997,0.0997,0.0997,0.0997,0.0651,0.0723,0.0757,0.084,0.0879,0.0937,0.1014,0.1005,0.1041,0.1022,0.1016,0.0996,0.1049,0.0998,0.0998,0.0998,0.0997,0.0997,0.0997,0.0705,0.0748,0.0768,0.0864,0.0913,0.0956,0.1012,0.1025,0.103,0.1033,0.1039,0.1039,0.0954,0.0997,0.0997,0.0997,0.0997,0.0997,0.0997,0.0752,0.079,0.0833,0.0904,0.092,0.0946,0.0978,0.1002,0.103,0.1048,0.1049,0.0993,0.0993,0.0956,0.0997,0.0997,0.0997,0.0997,0.0997,0.0866,0.085,0.0914,0.093,0.0979,0.105,0.1019,0.1045,0.1053,0.1085,0.1077,0.1075,0.1075,0.1072,0.1039,0.1098,0.1098,0.1098,0.1098,0.0911,0.0928,0.0966,0.0999,0.1056,0.1102,0.1141,0.1233,0.1275,0.1363,0.1352,0.1391,0.138,0.1399,0.1389,0.1363,0.1506,0.1507,0.1508,0.0969,0.0964,0.0985,0.1014,0.1091,0.1168,0.1225,0.1345,0.1546,0.153,0.1477,0.1115,0.1142,0.1137,0.114,0.1134,0.108,0,0]}],[{"header":{"parameterUnit":"m.s-1","parameterCategory":2,"la1":30.2992,"la2":30.254,"lo1":-89.0895,"lo2":-89.0443,"dy":0.0025,"dx":0.0025,"nx":19,"ny":19,"refTime":"2026-04-11T03:00:00:Z","depth":"4","parameterNumber":2,"parameterNumberName":"U-component_of_CURRENTS"},"data":[0,0,0,-0.0238,-0.0237,-0.0199,-0.0198,-0.0171,-0.017,0,0,0,0,0,0,0,0,0,0,0,-0.0259,-0.0259,-0.0238,-0.0237,-0.0199,-0.0198,-0.0171,-0.017,0,0,0,0,0,0,0,0,0,0,0,-0.0259,-0.0259,-0.0259,-0.0237,-0.0199,-0.0198,-0.0171,-0.0194,0,0,0,0,0,0,0,0,0,0,-0.0229,-0.0247,-0.0259,-0.0259,-0.0237,-0.0199,-0.0198,-0.0195,-0.0193,-0.0194,0,-0.0194,0,-0.0179,-0.0169,-0.0169,0,0,0,-0.0237,-0.0249,-0.0236,-0.0259,-0.0236,-0.0199,-0.0216,-0.0194,-0.0191,-0.0191,-0.0193,-0.0192,-0.0178,-0.0169,-0.0169,-0.0083,-0.0082,0,0,-0.0239,-0.0253,-0.0238,-0.0235,-0.0234,-0.0217,-0.0215,-0.0192,-0.0194,-0.0193,-0.0191,-0.0178,-0.0169,-0.0169,-0.0084,-0.0083,0,0,0,-0.0245,-0.0255,-0.0242,-0.0236,-0.0226,-0.0216,-0.0213,-0.0195,-0.0191,-0.019,-0.0177,-0.0169,-0.0168,-0.0084,-0.0083,-0.0071,0,0,0,-0.0246,-0.0258,-0.0243,-0.0251,-0.0227,-0.0207,-0.0217,-0.0193,-0.0189,-0.0177,-0.0169,-0.0168,-0.0085,-0.0084,-0.0073,-0.0099,0,0,0,-0.026,-0.0259,-0.0257,-0.0252,-0.0234,-0.0207,-0.0201,-0.0191,-0.0181,-0.0169,-0.0168,-0.0086,-0.0084,-0.0075,-0.0101,-0.0134,0,0,0,-0.0272,-0.0265,-0.0257,-0.024,-0.0235,-0.0192,-0.0201,-0.0171,-0.0158,-0.0169,-0.0085,-0.0083,-0.0076,-0.0102,-0.0134,-0.0165,0,0,0,-0.0266,-0.0264,-0.0251,-0.0243,-0.0205,-0.0197,-0.0146,-0.0136,-0.0127,-0.0097,-0.0094,-0.0072,-0.0101,-0.0134,-0.0052,0,0,0,0,-0.025,-0.0243,-0.023,-0.0207,-0.0178,-0.0144,-0.0121,-0.0101,-0.006,-0.011,-0.0037,-0.0055,-0.0078,-0.0093,-0.0074,-0.0074,-0.0075,-0.0075,-0.0075,-0.0256,-0.0232,-0.0205,-0.0171,-0.0144,-0.01,-0.0072,-0.0035,-0.003,0.0006,-0.0018,0.0,-0.0008,0.003,0.0031,0.0031,0.0031,0.0031,0.0031,-0.0232,-0.0209,-0.0183,-0.0149,-0.0112,-0.007,-0.0016,-0.0001,0.002,0.0039,0.0017,-0.0042,0.0033,0.0033,0.0032,0.0032,0.0032,0.0032,0.0032,-0.0222,-0.0208,-0.0188,-0.0141,-0.0099,-0.0054,-0.0035,-0.0005,0.0014,0.0007,-0.0042,-0.0009,-0.0046,-0.0014,-0.0014,-0.0014,-0.0014,-0.0014,-0.0015,-0.0219,-0.0198,-0.018,-0.0133,-0.0111,-0.0077,-0.0056,-0.0066,-0.0061,-0.0051,-0.0013,-0.0016,-0.0015,-0.0048,-0.0018,-0.0017,-0.0017,-0.0017,-0.0016,-0.0204,-0.02,-0.018,-0.0163,-0.0122,-0.0099,-0.0083,-0.012,-0.0146,-0.0166,-0.0083,-0.0079,-0.0105,-0.0102,-0.014,-0.0136,-0.0136,-0.0137,0,-0.0202,-0.0195,-0.0188,-0.018,-0.0157,-0.0119,-0.0142,-0.0163,-0.0171,-0.0151,-0.0159,-0.0063,-0.006,-0.0087,-0.0085,-0.0128,0,0,0,-0.0199,-0.02,-0.0204,-0.0199,-0.0178,-0.0162,-0.0149,-0.0169,-0.0133,-0.0203,-0.0146,-0.0143,-0.0105,-0.0028,-0.0059,-0.0057,-0.0114,0,0]},{"header":{"parameterUnit":"m.s-1","parameterCategory":2,"la1":30.2992,"la2":30.254,"lo1":-89.0895,"lo2":-89.0443,"dy":0.0025,"dx":0.0025,"nx":19,"ny":19,"refTime":"2026-04-11T03:00:00:Z","depth":"4","parameterNumber":3,"parameterNumberName":"V-component_of_CURRENTS"},"data":[0,0,0,0.0741,0.0742,0.0789,0.0789,0.0859,0.0859,0,0,0,0,0,0,0,0,0,0,0,0.0731,0.0731,0.0741,0.0742,0.0789,0.0789,0.0858,0.0859,0,0,0,0,0,0,0,0,0,0,0,0.0731,0.0731,0.0732,0.0742,0.0789,0.0789,0.0858,0.0821,0,0,0,0,0,0,0,0,0,0,0.0775,0.0763,0.0731,0.0732,0.0743,0.0789,0.0789,0.0819,0.0824,0.084,0,0.0851,0,0.0854,0.0864,0.0864,0,0,0,0.0745,0.0759,0.0771,0.0732,0.0743,0.0789,0.0769,0.0822,0.0826,0.0845,0.0852,0.0854,0.0855,0.0864,0.0865,0.0918,0.0918,0,0,0.0742,0.074,0.0768,0.0774,0.0761,0.0767,0.077,0.0825,0.0833,0.0852,0.0856,0.0856,0.0865,0.0865,0.0918,0.0918,0,0,0,0.0733,0.0738,0.0749,0.0771,0.0778,0.0768,0.0772,0.083,0.0834,0.0856,0.0857,0.0865,0.0866,0.0917,0.0918,0.095,0,0,0,0.0732,0.0733,0.0747,0.0747,0.0777,0.0803,0.0776,0.083,0.0836,0.0857,0.0865,0.0867,0.0917,0.0918,0.0949,0.0936,0,0,0,0.0728,0.0732,0.0739,0.0746,0.0765,0.0802,0.0809,0.0831,0.0837,0.0864,0.0867,0.0917,0.0917,0.0948,0.0936,0.0957,0,0,0,0.0721,0.0739,0.0739,0.0763,0.0764,0.0798,0.0808,0.084,0.0864,0.0866,0.0917,0.0918,0.0948,0.0935,0.0956,0.0904,0,0,0,0.0738,0.0741,0.0755,0.0756,0.0786,0.0791,0.0831,0.0867,0.087,0.0901,0.0902,0.0949,0.0935,0.0957,0.0912,0,0,0,0,0.0756,0.0764,0.0776,0.0793,0.0815,0.0837,0.0867,0.0883,0.0916,0.0884,0.0943,0.0932,0.0946,0.0912,0.0918,0.0918,0.0918,0.0918,0.0918,0.0764,0.0776,0.0798,0.0819,0.0841,0.0875,0.0898,0.092,0.0935,0.0951,0.0956,0.0985,0.0951,0.0965,0.0966,0.0966,0.0966,0.0966,0.0966,0.0773,0.0778,0.0804,0.0831,0.0859,0.0893,0.0932,0.0949,0.0985,0.0979,0.0992,0.0944,0.0969,0.0969,0.0968,0.0968,0.0968,0.0967,0.0967,0.0758,0.0762,0.079,0.083,0.0869,0.0907,0.0934,0.0956,0.0992,0.1008,0.0979,0.0999,0.1,0.1027,0.1027,0.1027,0.1027,0.1027,0.1027,0.0726,0.0753,0.0787,0.0831,0.0871,0.0898,0.0937,0.0954,0.0983,0.0986,0.1014,0.1004,0.1002,0.1003,0.1028,0.1028,0.1027,0.1027,0.1027,0.0697,0.0728,0.0772,0.0817,0.0899,0.0906,0.0937,0.0942,0.097,0.0977,0.0982,0.0984,0.0963,0.0962,0.096,0.0973,0.0972,0.0972,0,0.0682,0.0696,0.078,0.0857,0.0904,0.0925,0.0925,0.0937,0.0952,0.0942,0.0991,0.0997,0.0998,0.0975,0.0973,0.097,0,0,0,0.0671,0.07,0.0765,0.0859,0.0925,0.0916,0.092,0.0918,0.0942,0.0935,0.0957,0.0961,0.1,0.103,0.1002,0.1,0.0999,0,0]}]]